Погода в Туношна-городке 26

Россия / Ярославская область     57°33′14″N   40°09′23″E
темп.,
°C
ветер,
м/с
пор.,
м/с
влажн.,
%
обл.,
%
осадки,
мм/ч
давл.,
гПа
погр.,
м
17 мая, пн
пн1700:00+13зюз33912 0.0 101438
03:00+12зюз22915 0.0 101512
06:00+14ююз1185100 0.0 101646
09:00+18юв227358 0.0 1016384
12:00+22юв346161 0.0 10161166
15:00+24вюв345471 0.0 10151397
18:00+22в5872100 0.0 1014355
21:00+18вюв5138583 0.4 1014249
18 мая, вт
вт1800:00+16вюв51390100 0.3 1014224
03:00+15юв41094100 0.3 1014171
06:00+16юв41086100 0.0 1014188
09:00+21юв6117245 0.0 1014464
12:00+25юв61061100 0.0 1014892
15:00+26вюв7105773 0.0 10131140
18:00+24вюв6136634 0.0 1012449
21:00+20юв617705 0.0 1012405
19 мая, ср
ср1900:00+18юв514755 0.0 1012307
03:00+16юв616865 0.0 1012332
06:00+17юв616805 0.0 1012510
09:00+22юв713705 0.0 1012556
12:00+26вюв713603 0.0 10111069
15:00+27вюв812545 0.0 10111415
18:00+24юв814644 0.0 1011700
21:00+21вюв716735 0.1 1011583
20 мая, чт
чт2000:00+18вюв615812 0.0 1011416
03:00+17юв615780 0.0 1010391
06:00+16вюв513830 0.0 1010335
09:00+21юв710700 0.0 1010617
12:00+23вюв811622 0.1 10091588
15:00+24вюв8136212 0.3 10082127
18:00+19юв71380100 1.6 1007850
21:00+17юв41190100 3.5 1007388
21 мая, пт
пт2100:00+14ююв5129475 0.4 1006424
03:00+14ююв51095100 0.4 1006433
06:00+13ююв6129496 0.0 1006520
09:00+14ююв711805 0.0 1006841
12:00+17ю81368100 0.0 10061292
15:00+17ю81268100 0.2 10061706
18:00+15ю6117199 0.2 10051307
21:00+10ююз7128678 0.6 1006674